Home > Weather > Amravati > Past weeks

Flag for India Past Weather in Amravati, Maharashtra, India — Yesterday and Last 2 Weeks

Now
82 °F

Passing clouds.


Feels Like: 88 °F
Forecast: 78 / 93 °F
Wind: No wind

Location: Nagpur Sonegaon

Current Time: Jun 26, 2016 at 3:06:23 AM

Latest Report: Jun 26, 2016 at 2:30 AM


Visibility: 2 mi

Pressure: 29.65 "Hg

Humidity: 74%

Dew Point: 73 °F

Location of AmravatiLocation

Past Weather in Amravati — Graph

°F

Amravati Temperature Yesterday

Maximum temperature yesterday: 99 °F (at 3:35 PM)
Minimum temperature yesterday: 77 °F (at 12:00 AM)
Average temperature yesterday: 86 °F

High & Low Weather Summary for the Past Weeks

 TemperatureHumidityPressure
High108 °F (Jun 11, 1:30 PM)100% (Jun 23, 4:00 AM)29.77 "Hg (Jun 23, 4:00 AM)
Low70 °F (Jun 23, 4:00 AM)21% (Jun 11, 4:30 PM)29.47 "Hg (Jun 16, 4:00 PM)
Average91 °F54%29.63 "Hg
* Reported Jun 11 2:30 AM — Jun 26 1:30 AM, Amravati, Weather by CustomWeather, © 2016

Note: Actual official high and low records may vary slightly from our data, if they occured in-between our weather recording intervals... More about our weather records

Advertising

Amravati Weather History for the Previous 24 Hours

Scroll right to see more
 ConditionsComfort  
Time TempWeatherWind HumidityBarometerVisibility
1:30 AM
Sun, Jun 26
84 °FPassing clouds.3 mph74%29.65 "Hg2 mi
1:00 AM84 °FPassing clouds.5 mph74%29.65 "Hg2 mi
12:30 AM84 °FPassing clouds.3 mph74%29.68 "Hg2 mi
12:00 AM84 °FPassing clouds.2 mph74%29.68 "Hg2 mi
11:30 PM
Sat, Jun 25
84 °FPassing clouds.5 mph74%29.68 "Hg2 mi
11:00 PM84 °FPassing clouds.5 mph74%29.68 "Hg2 mi
10:30 PM84 °FHaze.7 mph74%29.68 "Hg2 mi
10:00 PM84 °FHaze.9 mph74%29.68 "Hg2 mi
9:30 PM88 °FHaze.8 mph66%29.68 "Hg2 mi
9:00 PM90 °FHaze.12 mph59%29.65 "Hg2 mi
8:00 PM93 °FHaze.No wind49%29.62 "Hg2 mi
7:30 PM93 °FPassing clouds.No wind49%29.62 "Hg2 mi
6:30 PM95 °FScattered clouds.No wind50%29.59 "Hg2 mi
6:00 PM97 °FHaze.No wind47%29.56 "Hg2 mi
4:30 PM99 °FScattered clouds.6 mph44%29.56 "Hg3 mi
4:00 PM99 °FScattered clouds.3 mph44%29.56 "Hg3 mi
3:35 PM99 °FScattered clouds.6 mph44%29.59 "Hg3 mi
3:00 PM97 °FScattered clouds.5 mph47%29.62 "Hg3 mi
2:00 PM95 °FScattered clouds.7 mph50%29.62 "Hg3 mi
1:30 PM95 °FBroken clouds.5 mph50%29.65 "Hg3 mi
1:00 PM93 °FBroken clouds.2 mph56%29.65 "Hg3 mi
12:30 PM91 °FBroken clouds.6 mph59%29.65 "Hg3 mi
12:00 PM91 °FScattered clouds.6 mph59%29.68 "Hg3 mi
11:30 AM90 °FBroken clouds.7 mph63%29.68 "Hg3 mi
11:00 AM90 °FBroken clouds.9 mph63%29.68 "Hg3 mi
10:30 AM88 °FBroken clouds.8 mph66%29.68 "Hg3 mi
10:00 AM86 °FScattered clouds.9 mph24%29.71 "Hg3 mi
9:30 AM84 °FScattered clouds.7 mph31%29.71 "Hg3 mi
9:00 AM82 °FScattered clouds.2 mph48%29.71 "Hg3 mi
8:30 AM81 °FScattered clouds.3 mph37%29.71 "Hg2 mi
8:00 AM82 °FPartly sunny.No wind55%29.71 "Hg2 mi
7:30 AM77 °FPartly sunny.No wind94%29.71 "Hg1 mi
7:00 AM77 °FPartly sunny.No wind94%29.68 "Hg1 mi
6:30 AM77 °FPartly sunny.No wind94%29.71 "Hg1 mi
6:00 AM77 °FPassing clouds.No wind89%29.68 "Hg1 mi
5:30 AM77 °FPassing clouds.No wind89%29.68 "Hg1 mi
4:00 AM77 °FPassing clouds.5 mph89%29.62 "Hg2 mi
Weather by CustomWeather, © 2016

See weather overviewHow to use our weather pages